Location: Unspecified
(34.2620°N, 0.0000°E)
Time: 03:52:23
(UTC+00:00)

Tiangong 2 - Visible Passes

Search period start: 23 May 2019 00:00
Search period end: 02 June 2019 00:00
Orbit: 379 x 387 km, 42.8° (Epoch: 22 May)

Date Brightness Start Highest point End Pass type
(mag) Time Alt. Az. Time Alt. Az. Time Alt. Az.
23 May 3.0 19:32:46 10° W 19:35:36 31° NNW 19:38:27 10° NE visible
23 May 3.7 21:10:46 10° NW 21:12:55 17° N 21:14:12 14° NNE visible
24 May 3.7 20:10:21 10° NW 20:12:38 18° N 20:14:55 10° NE visible
24 May 4.0 21:47:41 10° NW 21:49:04 17° NNW 21:49:04 17° NNW visible
25 May 3.7 20:47:36 10° NW 20:49:47 17° N 20:51:42 11° NE visible
26 May 3.8 19:47:20 10° NW 19:49:29 17° N 19:51:38 10° NE visible
26 May 3.2 21:24:12 10° NW 21:26:27 24° N 21:26:27 24° N visible
27 May 3.4 20:24:14 10° NW 20:26:37 19° N 20:28:59 10° ENE visible
27 May 4.2 22:00:36 10° NW 22:01:09 14° NW 22:01:09 14° NW visible
28 May 2.2 21:00:40 10° NW 21:03:35 35° NNE 21:03:41 35° NNE visible
29 May 3.0 20:00:44 10° NW 20:03:23 24° NNE 20:06:02 10° ENE visible
29 May 3.5 21:37:10 10° WNW 21:38:23 21° WNW 21:38:23 21° WNW visible
30 May 1.3 20:37:07 10° NW 20:40:13 60° NNE 20:40:56 44° E visible
31 May 2.3 19:37:09 10° NW 19:40:04 35° NNE 19:42:59 10° E visible
31 May 2.9 21:13:54 10° W 21:15:41 25° WSW 21:15:41 25° WSW visible
01 Jun 1.1 20:13:38 10° WNW 20:16:45 70° SSW 20:18:17 27° SE visible
